Location: Unspecified
(0.0000°N, 0.0000°E)
Time: 02:22:48
(UTC+02:00)

CZ-4B DEB - Visible Passes

Search period start: 24 September 2014 00:00
Search period end: 04 October 2014 00:00
Orbit: 521 x 533 km, 97.5° (Epoch: 22 September)

Date Brightness Start Highest point End Pass type
(mag) Time Alt. Az. Time Alt. Az. Time Alt. Az.
24 Sep 4.0 20:57:38 10° S 21:01:21 53° WSW 21:05:03 10° NNW visible
25 Sep 3.2 20:46:12 10° S 20:50:00 84° WSW 20:53:48 10° NNW visible
26 Sep 3.2 20:34:52 10° SSE 20:38:38 61° E 20:42:23 10° N visible
27 Sep 3.7 20:23:40 10° SSE 20:27:15 39° ENE 20:30:48 10° N visible
28 Sep 4.2 20:12:38 10° SE 20:15:49 26° ENE 20:19:00 10° NNE visible
29 Sep 6.5 21:36:23 10° SW 21:38:23 14° WSW 21:40:23 10° WNW visible
30 Sep 5.9 21:24:02 10° SSW 21:26:55 21° WSW 21:29:48 10° NW visible
01 Oct 5.2 21:12:02 10° SSW 21:15:25 31° WSW 21:18:49 10° NW visible
02 Oct 4.2 21:00:13 10° S 21:03:54 48° WSW 21:07:35 10° NNW visible
03 Oct 3.3 20:48:33 10° S 20:52:22 77° W 20:56:10 10° NNW visible
